Weather History for KHZY - May, 2013

Change the Weather History Date:

Tuesday, May 28, 2013

  Actual Average (KYNG) Record (KYNG)
Temperature  
Mean Temperature 64 °F 61 °F  
Max Temperature 77 °F 72 °F 90 °F (2012)
Min Temperature 52 °F 50 °F 34 °F (1992)
Degree Days  
Heating Degree Days 2 5  
Month to date heating degree days 237  
Since 1 July heating degree days 6264  
Cooling Degree Days 0 2  
Month to date cooling degree days 24  
Year to date cooling degree days 33  
Growing Degree Days 14 (Base 50)    
Moisture  
Dew Point 60 °F    
Average Humidity 84    
Maximum Humidity 94    
Minimum Humidity 64    
Precipitation  
Precipitation 1.43 in 0.13 in - ()
Month to date precipitation 3.40  
Year to date precipitation 14.40  
Snow  
Snow 0.00 in 0.00 in - ()
Month to date snowfall 0.0  
Since 1 July snowfall 62.7  
Snow Depth -    
Sea Level Pressure  
Sea Level Pressure 29.98 in    
Wind  
Wind Speed 10 mph (South)    
Max Wind Speed 17 mph    
Max Gust Speed 29 mph    
Visibility 6 miles    
Events Rain    
T = Trace of Precipitation, MM = Missing Value Source: NWS Daily Summary

Daily Weather History Graph

Daily Weather History Graph

Search for Another Location

Airport or City:

Trip Planner

Search our weather history database for the weather conditions in past years. The results will help you decide how hot, cold, wet, or windy it might be!

Date:

Astronomy

May. 28, 2013 Rise Set
Actual Time 5:52 AM EDT 8:48 PM EDT
Civil Twilight 5:19 AM EDT 9:21 PM EDT
Nautical Twilight 4:37 AM EDT 10:03 PM EDT
Astronomical Twilight 3:48 AM EDT 10:52 PM EDT
Moon No Moon Rise 9:40 AM EDT (5/28)
Length of Visible Light 16h 02m
Length of Day
14h 55m
Waning Gibbous, 83% of the Moon is Illuminated
May 28
Waning Gibbous
May 31
Last Quarter
Jun 8
New
Jun 16
First Quarter
Jun 23
Full

Hourly Weather History & Observations

Time (EDT) Temp. Dew Point Humidity Pressure Visibility Wind Dir Wind Speed Gust Speed Precip Events Conditions
12:53 AM 52.0 °F 46.0 °F 80% 30.10 in 7.0 mi ESE 12.7 mph - 0.04 in Rain Light Rain
1:53 AM 52.0 °F 46.9 °F 83% 30.09 in 7.0 mi SSE 9.2 mph - 0.09 in Rain Rain
2:53 AM 52.0 °F 48.0 °F 86% 30.04 in 5.0 mi SE 12.7 mph - 0.08 in Rain Light Rain
3:53 AM 54.0 °F 51.1 °F 90% 30.01 in 10.0 mi SE 13.8 mph - 0.06 in Rain Light Rain
4:53 AM 54.0 °F 51.1 °F 90% 30.00 in 4.0 mi SSE 9.2 mph - 0.09 in Rain Rain
5:53 AM 55.0 °F 52.0 °F 89% 29.99 in 2.5 mi SE 9.2 mph - 0.22 in Rain Rain
6:03 AM 55.4 °F 51.8 °F 88% 29.99 in 4.0 mi SSE 12.7 mph 19.6 mph 0.01 in Rain Light Rain
6:10 AM 55.4 °F 53.6 °F 94% 30.01 in 6.0 mi West 11.5 mph 18.4 mph 0.02 in Rain Light Rain
6:53 AM 55.0 °F 53.1 °F 93% 30.01 in 4.0 mi SSE 8.1 mph - 0.05 in Rain Light Rain
7:15 AM 55.4 °F 53.6 °F 94% 30.01 in 8.0 mi South 9.2 mph - 0.01 in   Overcast
7:53 AM 57.0 °F 53.1 °F 87% 30.02 in 10.0 mi South 6.9 mph - 0.01 in   Overcast
8:53 AM 59.0 °F 54.0 °F 83% 30.02 in 10.0 mi SSW 6.9 mph - N/A   Overcast
9:53 AM 63.0 °F 55.9 °F 78% 30.04 in 10.0 mi SW 11.5 mph - N/A   Mostly Cloudy
10:53 AM 66.9 °F 59.0 °F 76% 30.02 in 10.0 mi SW 10.4 mph - N/A   Scattered Clouds
11:53 AM 66.9 °F 61.0 °F 81% 30.03 in 10.0 mi SW 9.2 mph - 0.00 in   Mostly Cloudy
12:53 PM 69.1 °F 60.1 °F 73% 30.02 in 10.0 mi South 8.1 mph - 0.01 in   Mostly Cloudy
1:53 PM 73.0 °F 62.1 °F 68% 29.99 in 10.0 mi SSE 9.2 mph - N/A   Clear
2:53 PM 75.9 °F 63.0 °F 64% 29.97 in 10.0 mi SSE 12.7 mph - N/A   Partly Cloudy
3:53 PM 75.9 °F 64.0 °F 67% 29.95 in 10.0 mi South 9.2 mph - N/A   Mostly Cloudy
4:48 PM 71.6 °F 66.2 °F 83% 29.98 in 1.2 mi SSW 17.3 mph 20.7 mph 0.19 in Rain Heavy Rain
4:53 PM 69.1 °F 63.0 °F 81% 29.96 in 0.2 mi Variable 6.9 mph 28.8 mph 0.51 in Rain Heavy Rain
5:02 PM 69.8 °F 64.4 °F 83% 29.96 in 1.5 mi South 4.6 mph - 0.02 in Rain Light Rain
5:04 PM 69.8 °F 64.4 °F 83% 29.96 in 4.0 mi SSE 6.9 mph - 0.02 in Rain Light Rain
5:12 PM 71.6 °F 64.4 °F 78% 29.95 in 10.0 mi SSE 6.9 mph - 0.02 in   Mostly Cloudy
5:53 PM 73.9 °F 66.0 °F 76% 29.91 in 10.0 mi South 12.7 mph - 0.02 in   Clear
6:53 PM 72.0 °F 64.0 °F 76% 29.91 in 8.0 mi South 9.2 mph - 0.01 in Rain Light Rain
7:53 PM 70.0 °F 66.0 °F 87% 29.94 in 2.5 mi NW 8.1 mph - 0.05 in Rain Rain
7:59 PM 69.8 °F 66.2 °F 88% 29.93 in 1.0 mi Variable 3.5 mph - 0.08 in Rain Heavy Rain
8:06 PM 69.8 °F 66.2 °F 88% 29.95 in 0.8 mi WSW 6.9 mph - 0.09 in Rain Light Rain
8:08 PM 69.8 °F 66.2 °F 88% 29.95 in 1.2 mi WSW 6.9 mph - 0.09 in Rain Light Rain
8:11 PM 69.8 °F 66.2 °F 88% 29.95 in 3.0 mi WSW 6.9 mph - 0.09 in Rain Light Rain
8:53 PM 68.0 °F 63.0 °F 84% 29.92 in 10.0 mi SSE 5.8 mph - 0.10 in   Overcast
9:21 PM 66.2 °F 64.4 °F 94% 29.96 in 7.0 mi NNW 10.4 mph - 0.00 in Rain Light Rain
9:53 PM 66.0 °F 63.0 °F 90% 29.94 in 4.0 mi East 5.8 mph - 0.08 in Rain Light Rain
10:53 PM 66.0 °F 63.0 °F 90% 29.95 in 5.0 mi SSE 3.5 mph - 0.01 in   Mostly Cloudy
11:28 PM 66.2 °F 62.6 °F 88% 29.96 in 4.0 mi Calm Calm - N/A   Mostly Cloudy
11:53 PM 68.0 °F 63.0 °F 84% 29.94 in 10.0 mi Calm Calm - N/A   Partly Cloudy